Theta_e
292 295 295 295 297 298 298 299 300 301 304 304 308 311 316 320 325 325 326 325 323 322 322 320 318 319 318 317 316 314 313 311 311 309 308 308 309 309 309 310 310 311 312
290 292 294 294 295 295 296 298 299 299 301 303 305 308 309 314 322 324 325 325 324 323 322 321 319 319 318 317 316 315 312 310 310 307 304 302 305 307 309 308 308 308 309
289 290 291 292 293 293 294 295 297 298 299 301 303 305 309 314 319 323 323 324 325 325 324 322 322 320 320 317 318 317 314 311 309 310 307 301 300 303 305 305 305 307 306
289 290 290 290 291 292 294 294 295 296 297 298 298 300 302 303 307 309 313 324 324 324 324 324 323 322 321 320 319 318 317 314 310 309 311 308 307 303 301 303 302 302 303
288 289 290 291 291 292 292 292 293 293 295 296 296 297 299 302 304 306 309 317 323 324 324 324 323 322 321 321 319 318 317 317 313 310 307 307 309 308 306 305 306 306 305
287 288 290 291 290 291 291 291 291 291 293 294 295 295 295 298 301 303 306 310 315 323 323 323 323 323 322 321 321 320 319 318 318 314 311 309 308 307 307 306 307 306 308
286 287 287 288 289 289 289 290 290 290 291 293 294 294 295 297 299 302 304 306 309 315 322 322 322 323 322 322 322 321 320 319 317 317 315 314 313 312 310 309 307 306 307
286 287 287 287 287 288 288 288 288 289 290 291 292 294 296 296 298 300 303 305 307 310 313 320 323 323 323 322 321 321 321 320 319 318 317 316 315 314 313 310 307 305 305
286 286 286 286 287 287 289 289 289 289 290 290 292 293 295 296 298 299 301 304 307 309 312 314 321 322 321 321 321 320 319 319 319 318 317 316 316 314 314 313 311 308 303
285 285 285 286 286 287 289 289 289 288 289 290 291 293 294 295 297 300 302 304 308 309 310 315 320 320 320 320 320 319 319 318 317 316 315 313 312 311 310 310 310 309 307
284 284 285 285 285 286 289 288 288 288 288 289 291 291 292 293 296 297 299 301 303 305 307 309 308 307 308 311 314 312 313 308 304 304 303 302 303 302 302 302 302 300 300
285 284 284 283 283 284 285 288 288 288 288 289 290 290 291 292 292 293 295 298 298 298 299 301 301 302 302 304 303 302 303 300 299 298 298 297 298 297 298 298 296 297 297
284 284 283 282 281 282 283 286 286 287 288 289 289 288 289 289 290 291 292 294 295 295 295 296 296 296 297 299 298 298 296 295 294 293 293 293 294 293 293 293 293 292 292
283 283 281 281 280 281 282 283 284 285 287 288 287 287 287 288 289 290 290 291 292 292 293 293 293 294 295 296 295 294 292 291 291 291 291 291 291 291 291 289 289 289 288
278 283 282 280 276 278 281 283 283 284 287 287 286 286 286 287 288 288 289 289 290 290 291 291 292 292 293 293 293 292 291 290 289 289 289 289 287 289 289 288 286 286 285
281 284 283 279 277 275 279 283 280 283 284 283 286 286 286 286 286 286 286 287 287 288 288 289 289 290 291 292 292 291 289 288 286 285 285 285 285 288 290 290 289 287 284
285 283 281 279 278 278 282 281 282 283 284 283 284 285 285 284 285 285 285 284 285 286 286 286 287 287 288 290 289 289 286 285 284 284 283 284 284 284 284 287 286 286 287
287 286 284 282 280 280 278 282 282 282 282 282 282 284 285 284 283 283 283 283 283 284 284 284 284 286 288 289 288 287 284 283 283 283 282 283 283 284 283 283 282 281 283
287 284 283 282 281 281 281 282 281 280 281 280 281 283 284 281 281 280 280 280 280 282 282 282 282 283 285 288 287 285 283 282 281 282 282 283 283 285 285 281 280 281 282
287 284 282 281 281 280 281 281 280 280 279 280 281 281 281 281 280 280 280 280 280 281 281 281 281 282 283 287 287 285 283 281 281 281 282 284 284 285 284 281 280 279 281
285 283 281 281 280 280 281 280 279 279 280 279 279 279 280 280 280 280 280 280 279 279 278 279 279 280 281 284 287 286 282 281 280 280 280 281 285 285 285 284 281 281 282
283 282 280 280 279 280 280 279 279 278 276 276 276 275 276 280 280 278 278 277 277 275 274 274 277 278 279 283 285 286 284 283 278 278 278 280 284 285 284 282 283 282 278
283 282 280 278 275 275 277 277 275 274 272 271 270 271 273 276 278 276 275 275 274 273 274 275 273 274 277 278 284 284 283 282 278 279 282 283 283 282 281 282 280 275 279
282 279 277 275 276 273 276 275 274 273 271 269 270 272 273 273 274 278 278 274 273 272 274 274 272 271 272 274 275 277 277 279 278 279 276 281 280 280 276 272 272 273 278
278 278 280 279 278 274 273 271 272 273 273 272 272 272 273 272 273 275 275 276 275 276 271 269 271 269 268 272 278 275 273 270 275 268 267 266 266 266 264 263 264 273 277
280 279 280 279 278 274 274 272 271 274 275 275 275 275 275 273 273 272 271 281 280 282 284 283 276 272 278 282 282 282 281 282 280 265 262 261 260 261 261 261 268 274 275
Wind_Speed
5 6 8 7 8 8 8 9 10 7 7 6 5 4 3 4 3 0 5 4 5 6 7 5 5 4 5 6 5 3 5 3 2 3 2 3 6 6 5 4 5 5 6
6 6 7 7 8 8 10 10 8 7 5 4 2 1 3 4 3 1 4 5 6 7 7 7 7 6 4 5 6 5 3 2 4 3 2 3 4 3 5 4 5 7 5
6 6 7 7 6 9 9 10 10 10 7 7 4 4 3 4 3 2 3 5 7 8 9 8 7 6 6 6 6 7 8 5 4 5 4 1 3 2 2 3 4 5 4
5 5 6 6 7 6 6 8 9 9 9 10 7 7 4 4 5 5 7 5 8 8 7 8 7 6 4 6 6 5 6 4 5 1 4 2 2 3 4 2 4 5 5
5 6 5 5 5 5 5 5 6 6 8 9 8 6 5 4 5 5 8 9 7 9 9 8 7 7 6 6 6 5 5 4 3 4 2 3 4 4 4 5 3 2 4
5 5 4 5 4 4 5 6 7 6 6 6 7 8 7 8 5 5 5 5 5 6 9 8 8 8 8 9 8 8 9 10 9 5 5 4 3 4 4 6 7 4 4
5 5 6 5 6 7 6 7 7 8 8 8 7 6 6 7 8 6 4 6 5 3 4 9 8 8 9 9 9 10 10 10 9 9 7 7 7 3 2 3 3 4 2
4 6 7 5 4 5 6 6 7 7 7 8 9 8 7 3 4 6 6 5 5 4 6 6 8 10 9 9 8 6 7 6 7 9 8 5 7 5 5 4 3 2 2
5 5 6 7 5 4 6 9 9 10 10 9 8 7 8 7 6 7 5 5 6 5 6 7 8 7 6 6 6 6 7 8 8 8 7 5 5 5 4 4 4 3 1
5 5 6 6 6 5 5 5 7 9 9 9 8 7 7 7 7 6 7 6 7 6 5 7 5 4 5 4 6 5 4 5 3 3 4 1 2 3 2 0 2 2 3
2 3 4 5 6 6 7 6 6 6 7 9 9 9 8 8 7 6 7 7 6 7 7 6 7 7 6 6 4 6 6 8 8 8 8 8 6 5 4 4 4 3 2
2 3 4 5 6 6 6 6 7 7 7 6 6 7 8 8 7 7 7 6 6 7 7 7 10 9 8 9 9 8 8 9 9 8 8 7 5 7 6 5 6 5 5
4 5 5 5 5 5 5 6 6 7 8 8 8 8 8 8 8 8 7 7 7 7 8 9 10 9 9 9 10 10 10 11 10 9 9 8 7 6 5 6 5 4 4
5 6 6 4 4 4 5 5 6 6 7 7 7 8 9 9 8 8 8 8 7 8 8 11 9 9 9 10 8 11 10 10 10 11 9 8 8 6 5 6 5 4 5
4 6 6 5 4 4 4 4 5 5 5 8 8 8 8 8 9 9 9 9 9 8 8 9 8 9 8 6 9 9 11 11 11 10 9 9 9 13 10 5 5 6 5
6 7 7 6 5 4 3 3 3 5 5 6 7 7 7 8 9 9 10 10 10 10 9 9 9 9 7 13 12 12 11 11 9 7 6 7 6 9 14 16 16 11 5
8 8 8 6 5 5 2 2 3 3 5 5 5 6 5 5 6 6 8 8 8 8 9 9 9 9 9 14 17 14 9 10 7 6 6 5 5 6 6 14 16 14 16
8 7 6 5 6 4 3 2 4 4 5 5 5 4 4 5 5 7 7 7 5 6 6 7 7 9 9 14 16 15 9 11 9 7 5 5 6 8 5 7 9 7 7
7 7 7 6 5 6 4 4 4 4 4 4 4 4 4 4 3 6 5 4 5 6 7 6 6 6 8 12 13 11 8 11 9 6 5 5 8 12 12 8 8 9 7
7 8 8 6 6 5 5 5 5 5 4 2 2 3 4 4 5 5 5 3 5 5 3 6 5 6 8 12 12 10 5 8 6 6 5 13 10 15 12 7 8 9 5
9 7 7 8 8 7 6 5 5 5 5 4 3 3 4 4 5 5 4 4 4 5 4 6 3 6 5 9 12 12 6 4 5 4 4 3 13 14 16 12 5 6 5
7 8 7 7 7 7 6 6 6 4 2 4 3 2 2 2 3 5 3 4 5 4 2 3 3 4 5 7 12 14 11 10 6 4 1 2 12 15 14 9 12 12 8
8 7 8 6 4 5 6 7 5 6 4 3 4 2 2 1 2 3 3 3 3 3 2 2 2 1 1 3 12 13 13 12 5 2 8 12 14 14 11 14 12 6 5
9 7 7 8 8 7 7 5 7 7 6 5 4 4 5 3 2 2 2 2 1 1 1 1 1 1 2 3 3 3 4 6 4 5 3 10 12 13 9 5 6 2 5
6 8 11 11 12 8 8 6 7 8 7 5 4 3 3 3 2 2 3 3 2 3 4 3 3 4 2 3 6 6 3 3 5 4 4 4 4 4 3 3 3 3 5
7 8 11 9 10 10 9 8 8 10 9 8 6 6 5 3 3 3 1 4 5 2 5 8 6 3 5 9 7 7 10 12 11 5 3 2 2 2 1 2 2 4 5
Wind_Direction
12 47 37 43 33 32 35 19 9 355 352 12 8 322 353 307 324 232 154 164 166 161 170 163 173 181 167 166 170 158 174 194 125 100 338 285 253 249 242 237 243 248 240
17 35 39 26 37 17 19 8 1 357 356 13 271 256 291 281 271 258 197 184 174 161 177 179 177 188 173 174 173 163 142 191 178 140 109 299 324 290 234 221 231 237 237
21 32 29 23 30 28 16 8 350 343 4 357 335 335 292 232 249 288 216 209 196 186 179 182 180 179 176 195 187 183 171 184 192 194 156 168 232 310 316 274 254 247 239
25 42 35 32 26 19 21 359 1 347 4 359 352 4 350 344 14 330 322 213 215 199 201 195 193 194 187 191 202 191 188 145 175 195 227 225 157 184 313 300 264 241 241
33 44 38 47 27 22 12 346 6 350 1 348 353 350 342 335 320 324 320 319 197 203 197 202 195 200 209 209 183 179 190 195 174 177 166 214 228 220 227 274 276 290 242
17 24 50 44 22 15 19 344 1 360 353 339 349 346 339 334 327 325 317 330 318 202 197 197 205 216 213 210 198 207 209 209 210 195 193 173 175 197 203 233 264 273 273
14 7 14 47 17 10 7 3 357 353 355 350 349 332 322 318 317 309 295 310 317 328 220 198 204 209 214 205 206 207 210 209 208 206 210 212 214 180 195 211 247 246 301
22 8 0 28 57 9 351 348 351 349 346 348 348 339 330 312 314 316 318 309 277 276 277 277 211 216 209 207 203 204 212 202 211 213 219 215 219 206 206 200 194 267 245
20 16 1 356 13 48 27 1 356 353 354 352 347 341 337 334 318 305 293 290 298 286 280 294 213 208 202 198 210 209 220 210 215 215 210 206 216 204 214 211 202 172 258
13 1 1 2 0 9 32 25 4 352 349 347 347 348 343 340 329 313 313 324 311 285 281 280 212 194 207 196 214 203 193 205 195 209 198 94 40 63 44 245 209 192 198
4 358 358 5 9 2 358 6 10 9 1 351 352 357 354 352 351 351 345 342 3 10 35 50 55 59 50 36 77 62 71 81 74 63 81 69 66 67 53 56 50 60 37
26 3 357 4 3 354 355 0 2 358 357 357 12 12 5 2 10 10 6 11 38 40 50 48 69 60 49 57 63 71 78 80 75 70 74 73 71 71 63 64 68 60 36
341 339 345 354 359 352 349 349 0 358 360 1 10 16 15 11 16 18 21 31 49 56 63 66 65 65 59 63 73 65 73 72 76 68 66 56 62 63 62 62 59 63 68
305 310 316 331 339 348 356 351 354 356 11 14 18 19 14 12 14 20 27 33 37 55 62 68 68 72 70 76 76 91 89 87 76 68 66 61 62 68 65 72 56 57 67
264 273 280 297 299 329 350 5 6 16 15 22 22 21 18 19 21 27 28 33 39 50 57 71 68 76 76 86 95 100 88 86 81 73 74 67 67 69 69 69 46 62 71
244 247 255 267 269 269 294 11 6 27 53 34 32 25 25 33 34 34 33 37 36 42 45 52 63 62 65 82 92 95 98 95 93 96 80 70 57 58 77 78 74 68 66
213 213 223 223 228 235 215 79 55 40 61 53 40 31 23 38 44 45 50 43 49 51 54 53 58 63 69 76 83 84 88 88 78 69 70 75 69 76 79 79 71 62 67
210 193 194 191 208 221 230 129 90 71 56 49 48 37 45 60 59 60 57 53 43 54 65 61 63 75 76 84 87 86 85 86 70 62 64 75 66 67 80 95 84 63 55
197 185 177 173 179 187 183 141 116 101 83 49 52 31 42 66 68 74 65 55 50 49 49 52 50 68 73 88 99 98 93 85 74 68 53 58 68 75 83 85 90 73 48
171 167 164 155 166 194 180 152 147 134 115 74 52 53 64 79 78 83 71 54 59 53 48 60 38 52 71 84 92 88 92 92 94 60 42 70 78 77 80 83 87 83 68
166 159 170 173 184 175 170 180 165 175 162 147 119 80 82 102 98 92 93 92 79 70 38 66 21 54 51 75 91 96 77 93 92 83 58 45 78 77 73 71 82 89 84
171 172 175 199 183 175 172 181 195 169 155 136 123 109 80 135 124 115 108 98 104 97 74 100 77 42 29 87 87 94 102 108 106 99 45 72 78 76 78 71 68 76 69
186 179 182 190 217 203 181 179 205 156 155 129 130 122 83 58 98 94 95 97 116 129 127 93 92 79 10 37 86 100 101 104 95 126 108 95 84 76 60 62 64 64 80
199 177 167 192 215 211 209 195 167 161 154 160 168 167 159 159 116 111 133 113 107 85 89 119 124 48 41 50 45 63 76 101 90 108 90 91 81 76 68 45 43 33 81
186 180 194 200 212 193 213 196 177 165 172 176 187 193 179 169 151 150 159 148 193 173 181 202 176 149 180 219 163 149 137 157 146 100 46 37 43 47 33 20 22 56 81
184 193 205 210 208 190 206 200 184 183 176 185 192 194 183 182 172 157 40 177 176 187 200 186 169 229 192 172 158 162 161 153 140 59 93 67 71 113 145 108 76 80 76